{"data":{"norad_id":62561,"epoch":"2026-09-21T15:30:03.702816Z","epoch_age_seconds":72347,"freshness":"FRESH","line1":"1 62561U 25006H   26264.64587619  .00160943  00000+0  12314-2 0  9994","line2":"2 62561  43.0020  38.5180 0002069 262.9414  97.1218 15.70881499 97423","mean_motion":15.70881499,"eccentricity":0.0002069,"inclination_deg":43.002,"raan_deg":38.518,"arg_perigee_deg":262.9414,"mean_anomaly_deg":97.1218,"bstar":0.0012314,"rev_number":9742,"period_min":91.668276755228,"perigee_km":354.98308143783,"apogee_km":357.76982310438,"semimajor_km":6734.5134522711,"source":"CELESTRAK","updated_at":"2026-09-22T09:00:49.627324Z"}}